Location: *
(49.8044°N, 4.0558°E)
Time: 02:59:07
(UTC+00:00)

Cosmos 1812 Rocket - Pass Details

Date: 09 April 2020
Orbit: 607 x 631 km, 82.5° (Epoch: 26 May)

Event Time Altitude Azimuth Distance (km) Brightness Sun altitude
Exits shadow 21:02:22 20° 215° (SW) 1,413 5.3 -22.2°
Maximum altitude 21:05:09 51° 284° (WNW) 770 4.3 -22.5°
Drops below altitude 10° 21:09:24 10° 1° (N) 1,970 6.7 -23.0°
Sets 21:11:41 0° 7° (N) 2,879 7.6 -23.3°
